Simultaneous Nadir Overpasses (SNOs) Predictions

Prediction of SNOs between AQUA and NOAA-19 Satellite Orbit:

Table of predicted SNOs for the next 14.0 days since TLE Epoch: 10/12/2024
Index Date (AQUA) Time (AQUA) Lat,Lon (AQUA) SZA (AQUA ) Date (NOAA-19) Time (NOAA-19) Lat,Lon (NOAA-19) SZA (NOAA-19 ) Distance(km) Time Diff (sec)
1 10/13/2024 03:27:10 75.59, 128.52 83.47 10/13/2024 03:25:58 75.60, 128.45 83.47 2.24 72
2 10/13/2024 04:16:31 -75.65, -64.01 96.46 10/13/2024 04:16:59 -75.68, -64.03 96.43 3.16 28
3 10/15/2024 07:15:40 -75.63,-108.70 95.69 10/15/2024 07:15:40 -75.65,-108.74 95.67 2.46 0
4 10/17/2024 10:14:46 -75.65,-153.48 94.89 10/17/2024 10:14:20 -75.65,-153.38 94.90 3.01 26
5 10/17/2024 11:04:08 75.70, 14.04 85.17 10/17/2024 11:05:14 75.71, 14.11 85.19 2.32 66
6 10/19/2024 13:13:47 -75.61, 161.94 94.17 10/19/2024 13:13:00 -75.62, 161.90 94.16 1.43 47
7 10/19/2024 14:03:09 75.66, -30.56 85.90 10/19/2024 14:03:55 75.65, -30.70 85.90 3.87 46
8 10/21/2024 16:12:45 -75.60, 117.26 93.42 10/21/2024 16:11:39 -75.60, 117.25 93.41 0.86 66
9 10/21/2024 17:02:07 75.66, -75.26 86.66 10/21/2024 17:02:34 75.66, -75.28 86.67 0.90 27
10 10/23/2024 19:11:34 -75.33, 73.35 92.92 10/23/2024 19:10:25 -75.25, 71.48 93.04 53.73 69
11 10/23/2024 20:01:01 75.64,-119.90 87.39 10/23/2024 20:01:13 75.65,-119.94 87.40 1.29 12
12 10/25/2024 22:59:52 75.67,-164.63 88.15 10/25/2024 22:59:51 75.66,-164.52 88.14 3.13 1



Historial Predications of SNOs between AQUA and NOAA-19
